Location: Northcutt
(34.7304°N, 84.4305°W)
Time: 15:30:37
(UTC+00:00)

Vanguard 2 Rocket - Visible Passes

Search period start: 26 September 2022 00:00
Search period end: 06 October 2022 00:00
Orbit: 553 x 3323 km, 32.9° (Epoch: 25 September)

Date Brightness Start Highest point End Pass type
(mag) Time Alt. Az. Time Alt. Az. Time Alt. Az.
26 Sep 7.8 08:54:20 30° ESE 08:54:20 30° ESE 08:56:20 10° E visible
26 Sep 6.8 11:00:34 10° W 11:04:33 35° SSW 11:08:10 10° SE visible
27 Sep 6.3 10:03:33 37° WSW 10:05:00 52° SSW 10:08:52 10° ESE visible
28 Sep 10.4 02:12:58 10° S 02:16:27 14° S 02:16:27 14° S visible
28 Sep 7.4 09:07:01 38° ESE 09:07:01 38° ESE 09:09:34 10° ESE visible
29 Sep 10.3 01:14:39 10° SSE 01:20:12 13° SSE 01:20:12 13° SSE visible
29 Sep 10.5 03:23:38 10° SSW 03:26:01 15° SSW 03:26:01 15° SSW visible
29 Sep 6.8 10:16:17 27° WSW 10:18:03 36° SSW 10:21:45 10° SE visible
30 Sep 10.1 02:22:19 10° SSW 02:29:47 22° S 02:29:47 22° S visible
30 Sep 7.2 09:19:48 40° SE 09:19:48 40° SE 09:22:40 10° ESE visible
01 Oct 10.0 01:21:49 10° S 01:33:34 22° SSE 01:33:34 22° SSE visible
01 Oct 10.3 03:35:00 10° SW 03:39:23 20° SW 03:39:23 20° SW visible
01 Oct 9.2 08:23:20 11° ESE 08:23:20 11° ESE 08:23:29 10° ESE visible
01 Oct 7.5 10:29:07 19° WSW 10:30:56 23° SSW 10:34:12 10° SSE visible
02 Oct 10.2 00:22:51 10° S 00:32:11 16° SE 00:37:22 13° ESE visible
02 Oct 9.8 02:32:59 10° SSW 02:43:10 31° S 02:43:10 31° S visible
02 Oct 7.4 09:32:42 33° S 09:32:42 33° S 09:35:33 10° SE visible
03 Oct 9.6 01:31:34 10° SSW 01:46:57 32° SSE 01:46:57 32° SSE visible
03 Oct 10.2 03:47:00 10° SW 03:52:45 24° SW 03:52:45 24° SW visible
03 Oct 9.0 08:36:18 12° ESE 08:36:18 12° ESE 08:36:35 10° ESE visible
03 Oct 8.1 10:42:05 12° WSW 10:43:37 13° SW 10:45:42 10° S visible
04 Oct 9.9 00:31:03 10° S 00:45:09 25° SE 00:50:43 21° ESE visible
04 Oct 9.6 02:44:28 10° SW 02:56:31 41° SSW 02:56:31 41° SSW visible
04 Oct 7.9 09:45:44 22° S 09:45:44 22° S 09:48:02 10° SSE visible
04 Oct 10.3 23:31:59 10° S 23:43:16 18° SE 23:53:12 10° ESE visible
05 Oct 9.3 01:42:25 10° SW 01:59:56 43° SSE 02:00:14 43° SSE visible
05 Oct 10.1 03:59:28 10° WSW 04:06:02 27° WSW 04:06:02 27° WSW visible
05 Oct 9.1 08:49:23 10° SE 08:49:23 10° SE 08:49:27 10° SE visible
